Stations météo

Publicité
Orleans, France (7249): Température de l'air & dewpoint: 07.12.2018 11:00:00 - 13.12.2018 11:00:00 (CET)Orleans, France (7249): Température de l'air 5cm: 07.12.2018 11:00:00 - 13.12.2018 11:00:00 (CET)Orleans, France (7249): Température de l'air -20cm & Température de l'air -100cm: 07.12.2018 11:00:00 - 13.12.2018 11:00:00 (CET)Orleans, France (7249): Vitesse du vent & gusts: 07.12.2018 11:00:00 - 13.12.2018 11:00:00 (CET)Orleans, France (7249): Direction du vent: 07.12.2018 11:00:00 - 13.12.2018 11:00:00 (CET)Orleans, France (7249): reduced air pressure: 07.12.2018 11:00:00 - 13.12.2018 11:00:00 (CET)Orleans, France (7249): visibility: 07.12.2018 11:00:00 - 13.12.2018 11:00:00 (CET)Orleans, France (7249): Ensoleillement: 07.12.2018 11:00:00 - 13.12.2018 11:00:00 (CET)Orleans, France (7249): Quantités de précipitations: 07.12.2018 11:00:00 - 13.12.2018 11:00:00 (CET)
Date & Time tt [°C] td [°C] tt 5cm [°C] tt -20cm [°C] tt -100cm [°C] ff [km/h] ff [knt] fx [km/h] fx [knt] dd ppp [hPa] vv [km] sd [min] rr [mm]
13.12.2018 11:00:00 0,7 -1,9 -0,8 7,7 11,3 19 11 27 15 E 1012,5 12 60 0,0
13.12.2018 10:00:00 -0,3 -2,2 -2,9 7,7 11,3 18 10 27 14 ENE 1012,8 9 57 0,0
13.12.2018 09:00:00 -0,8 -2,7 -3,7 7,8 11,3 17 9 24 13 E 1012,9 10 0 0,0
13.12.2018 08:00:00 -0,8 -2,7 -3,3 7,8 11,3 16 9 33 18 E 1012,8 11 0 0,0
13.12.2018 07:00:00 -0,7 -2,4 -3,2 7,9 11,3 19 10 27 15 E 1012,9 10 0 0,0
13.12.2018 06:00:00 -0,9 -2,2 -3,2 8,0 11,3 19 10 26 14 E 1013,4 7 0 0,0
13.12.2018 05:00:00 -0,9 -1,9 -3,7 8,0 11,3 15 8 24 13 E 1014,6 7 0 0,0
13.12.2018 04:00:00 -1,6 -2,4 -4,0 8,1 11,3 11 6 19 10 ENE 1015,1 4,9 0 0,0
13.12.2018 03:00:00 -1,4 -2,4 -4,2 8,1 11,3 8 4 19 11 E 1016,0 4,8 0 0,0
13.12.2018 02:00:00 -0,5 -1,5 -3,1 8,2 11,3 13 7 22 12 E 1016,2 6 0 0,0
13.12.2018 01:00:00 -0,3 -1,3 -2,9 8,3 11,3 14 7 20 11 ENE 1016,7 5 0 0,0
13.12.2018 00:00:00 -0,4 -1,4 -2,6 8,3 11,3 18 10 24 13 E 1017,4 6 0 0,0
12.12.2018 23:00:00 -0,1 -1,2 -2,2 8,4 11,3 14 7 26 14 E 1018,0 5 0 0,0
12.12.2018 22:00:00 0,0 -0,9 -1,5 8,4 11,4 22 12 36 20 E 1018,2 6 0 0,0
12.12.2018 21:00:00 -0,5 -1,1 -2,7 8,5 11,3 18 10 27 15 E 1019,4 4,0 0 0,0
12.12.2018 20:00:00 -0,6 -1,7 -2,4 8,5 11,4 9 5 15 8 ENE 1019,7 4,8 0 0,0
12.12.2018 19:00:00 0,8 -0,8 -1,8 8,5 11,4 11 6 20 11 E 1019,2 11 0 0,0
12.12.2018 18:00:00 1,6 -0,3 -1,0 8,5 11,4 13 7 18 10 ENE 1019,6 13 0 0,0
12.12.2018 17:00:00 2,9 -0,2 0,5 8,5 11,4 15 8 29 16 ENE 1019,9 34 30 0,0
12.12.2018 16:00:00 4,1 -0,5 3,4 8,5 11,4 19 10 29 16 ENE 1019,8 60 60 0,0
12.12.2018 15:00:00 5,0 -1,7 7,5 8,5 11,4 19 10 29 16 E 1020,4 57 60 0,0
12.12.2018 14:00:00 4,8 -1,4 7,0 8,5 11,4 19 10 25 14 E 1020,8 20 60 0,0
12.12.2018 13:00:00 3,9 -0,3 2,2 8,5 11,4 18 10 26 14 E 1021,5 35 42 0,0
12.12.2018 12:00:00 2,0 -0,8 2,6 8,6 11,4 18 10 25 14 E 1022,4 20 31 0,0
12.12.2018 11:00:00 1,2 -0,6 0,7 8,6 11,4 13 7 18 10 E 1022,9 16 24 0,0
12.12.2018 10:00:00 0,5 -0,5 -0,7 8,7 11,4 14 7 22 12 ENE 1023,0 10 0 0,0
12.12.2018 09:00:00 0,0 -0,9 -1,3 8,7 11,4 16 8 19 11 ENE 1022,9 8 0 0,0
12.12.2018 08:00:00 0,6 -0,3 -0,7 8,7 11,4 10 5 14 8 E 1022,8 9 0 0,0
12.12.2018 07:00:00 1,1 0,4 -0,1 8,8 11,4 8 4 16 8 E 1022,7 8 0 0,0
12.12.2018 06:00:00 1,5 0,8 0,1 8,8 11,4 11 6 14 8 E 1022,5 9 0 0,0
12.12.2018 05:00:00 1,8 1,4 0,4 8,8 11,4 8 4 14 7 E 1022,7 6 0 0,0
12.12.2018 04:00:00 2,3 2,0 1,3 8,8 11,4 13 7 19 10 E 1023,0 4,1 0 0,0
12.12.2018 03:00:00 2,3 2,0 1,7 8,8 11,4 11 6 18 10 ESE 1023,5 4,9 0 0,0
12.12.2018 02:00:00 2,0 1,7 1,4 8,8 11,4 9 5 19 10 ESE 1023,7 3,2 0 0,0
12.12.2018 01:00:00 1,9 1,6 1,5 8,8 11,4 16 9 21 12 ESE 1023,6 0,6 0 0,0
12.12.2018 00:00:00 2,1 1,8 1,3 8,9 11,5 11 6 15 8 ESE 1024,1 0,3 0 0,0
11.12.2018 23:00:00 2,3 1,9 1,8 8,8 11,4 7 4 17 9 SE 1024,3 0,4 0 0,0
11.12.2018 22:00:00 2,5 2,1 2,1 8,9 11,5 8 5 11 6 ESE 1024,2 0,3 0 0,0
11.12.2018 21:00:00 3,0 2,6 2,7 8,8 11,5 8 4 11 6 ESE 1024,6 2,5 0 0,0
11.12.2018 20:00:00 3,9 3,5 3,4 8,8 11,5 7 4 18 10 SSE 1024,6 2,7 0 0,0
11.12.2018 19:00:00 3,9 3,5 3,5 8,8 11,5 9 5 16 9 SE 1024,8 1,4 0 0,0
11.12.2018 18:00:00 4,5 4,2 3,6 8,8 11,5 9 5 16 9 SE 1024,8 1,8 0 0,0
11.12.2018 17:00:00 4,1 3,7 3,6 8,7 11,5 12 6 16 9 SSE 1024,6 0,3 0 0,0
11.12.2018 16:00:00 4,5 3,9 4,8 8,7 11,5 9 5 16 9 SSE 1024,7 0,3 19 0,0
11.12.2018 15:00:00 5,1 3,8 7,5 8,7 11,5 9 5 16 9 S 1024,7 0,6 60 0,0
11.12.2018 14:00:00 7,6 5,2 11,4 8,7 11,5 9 5 14 8 SSE 1024,8 6 60 0,0
11.12.2018 13:00:00 6,8 5,3 8,4 8,7 11,5 5 3 6 4 S 1025,7 6 60 0,0
11.12.2018 12:00:00 4,0 3,6 5,6 8,8 11,5 3 2 6 3 SE 1026,3 1,3 60 0,0
11.12.2018 11:00:00 1,7 1,4 0,9 8,9 11,5 3 1 6 3 E 1027,0 0,3 58 0,0
11.12.2018 10:00:00 0,4 0,1 -1,3 8,9 11,5 3 2 6 3 NE 1026,8 0,2 34 0,0
11.12.2018 09:00:00 -0,1 -0,4 -1,4 9,0 11,5 0 0 9 5 N 1027,0 - 0 0,0
11.12.2018 08:00:00 0,8 0,5 -4,7 9,1 11,5 9 5 24 13 NE 1026,9 0,2 0 0,0
11.12.2018 07:00:00 -0,9 -1,3 -4,9 9,2 11,5 3 2 5 3 NW 1026,6 0,2 0 0,0
11.12.2018 06:00:00 -1,0 -1,6 -4,7 9,3 11,5 0 0 2 1 N 1027,1 0,2 0 0,0
11.12.2018 05:00:00 0,6 0,2 -4,4 9,4 11,5 0 0 4 2 N 1027,6 0,3 0 0,0
11.12.2018 04:00:00 1,0 0,6 -4,3 9,4 11,5 3 2 6 4 W 1027,8 0,3 0 0,0
11.12.2018 03:00:00 1,4 1,0 -3,5 9,5 11,5 3 2 10 5 W 1028,1 4,5 0 0,0
11.12.2018 02:00:00 1,3 0,7 -4,0 9,6 11,5 8 5 10 6 WNW 1028,3 3,1 0 0,0
11.12.2018 01:00:00 1,8 1,1 -3,8 9,6 11,5 5 3 9 5 W 1028,6 11 0 0,0
11.12.2018 00:00:00 2,4 1,7 -3,7 9,7 11,5 4 2 15 8 WNW 1028,8 14 0 0,0
10.12.2018 23:00:00 2,2 1,5 -3,1 9,8 11,5 15 8 16 9 W 1028,9 13 0 0,0
10.12.2018 22:00:00 2,6 1,9 -2,3 9,8 11,5 13 7 14 8 WSW 1028,9 14 0 0,0
10.12.2018 21:00:00 3,2 2,2 -2,1 9,9 11,5 15 8 16 9 W 1029,2 19 0 0,0
10.12.2018 20:00:00 3,4 1,9 -2,1 9,9 11,5 8 4 13 7 W 1029,3 38 0 0,0
10.12.2018 19:00:00 4,2 2,9 -0,4 9,9 11,5 11 6 14 7 W 1029,0 40 0 0,0
10.12.2018 18:00:00 4,6 2,9 -0,1 9,9 11,5 10 5 16 9 W 1029,0 43 0 0,0
10.12.2018 17:00:00 7,1 4,2 5,4 9,9 11,5 15 8 26 14 WNW 1028,9 52 3 0,0
10.12.2018 16:00:00 9,2 5,0 7,7 9,8 11,5 20 11 32 17 WNW 1028,7 23 33 0,0
10.12.2018 15:00:00 8,9 5,1 8,3 9,8 11,5 21 12 32 18 WNW 1028,8 49 25 0,0
10.12.2018 14:00:00 10,1 6,4 9,4 9,8 11,6 23 13 32 17 WNW 1028,7 20 40 0,0
10.12.2018 13:00:00 9,3 6,0 9,1 9,8 11,5 21 11 32 17 WNW 1029,2 14 54 0,0
10.12.2018 12:00:00 8,6 6,2 9,1 9,9 11,5 25 14 34 18 W 1029,7 14 60 0,0
10.12.2018 11:00:00 7,6 6,2 5,9 9,9 11,5 18 10 29 15 W 1029,9 13 60 0,0
10.12.2018 10:00:00 5,7 5,1 2,3 10,0 11,5 18 10 26 14 W 1029,4 12 60 0,0
10.12.2018 09:00:00 3,6 3,0 1,8 10,0 11,6 14 8 19 10 W 1029,0 7 0 0,0
10.12.2018 08:00:00 4,2 3,5 2,5 10,0 11,5 16 8 23 13 W 1028,7 9 0 0,0
10.12.2018 07:00:00 6,4 5,7 4,2 10,1 11,6 18 10 24 13 W 1028,2 13 0 0,4
10.12.2018 06:00:00 5,4 4,7 3,9 10,1 11,6 14 8 22 12 W 1027,9 11 0 0,0
10.12.2018 05:00:00 6,1 5,5 3,4 10,1 11,5 17 9 23 12 W 1027,6 14 0 0,0
10.12.2018 04:00:00 5,4 4,7 3,3 10,2 11,6 14 8 21 12 W 1027,6 18 0 0,0
10.12.2018 03:00:00 5,4 4,5 3,6 10,3 11,6 17 9 23 12 WSW 1027,3 16 0 0,0
10.12.2018 02:00:00 5,5 4,3 3,9 10,3 11,6 17 9 26 14 W 1026,9 17 0 0,0
10.12.2018 01:00:00 6,6 4,9 5,4 10,3 11,6 19 11 26 14 WSW 1026,7 17 0 0,0
10.12.2018 00:00:00 7,3 4,9 5,5 10,3 11,6 19 10 30 16 WSW 1026,0 42 0 0,0
09.12.2018 23:00:00 8,0 5,1 6,8 10,3 11,5 23 13 31 17 W 1025,1 47 0 0,0
09.12.2018 22:00:00 8,7 5,6 7,2 10,3 11,6 20 11 31 17 W 1024,3 55 0 0,0
09.12.2018 21:00:00 9,1 6,0 7,9 10,3 11,6 24 13 38 20 WNW 1023,0 56 0 0,0
09.12.2018 20:00:00 9,2 6,5 7,7 10,4 11,7 22 12 42 23 WNW 1022,1 57 0 0,0
09.12.2018 19:00:00 9,3 7,1 6,9 10,3 11,6 24 13 36 19 W 1021,0 46 0 0,4
09.12.2018 18:00:00 9,2 7,3 8,0 10,3 11,6 27 15 54 29 WNW 1020,0 7 0 0,0
09.12.2018 17:00:00 10,2 7,3 8,2 10,3 11,6 29 15 45 24 W 1018,1 41 6 0,0
09.12.2018 16:00:00 10,0 7,4 8,2 10,2 11,6 33 18 66 36 WNW 1016,9 14 2 0,2
09.12.2018 15:00:00 11,1 6,8 8,6 10,2 11,6 41 22 66 36 W 1015,5 20 26 0,0
09.12.2018 14:00:00 10,2 7,1 8,5 10,2 11,6 36 19 68 37 W 1015,0 12 0 0,0
09.12.2018 13:00:00 10,5 6,1 9,8 10,3 11,6 44 24 64 35 W 1014,8 17 7 0,0
09.12.2018 12:00:00 10,5 5,9 9,2 10,3 11,6 47 26 67 36 W 1014,9 17 19 0,0
09.12.2018 11:00:00 9,6 5,4 8,3 10,3 11,6 42 23 63 34 W 1015,0 16 13 0,0
09.12.2018 10:00:00 9,0 5,0 7,3 10,3 11,6 39 21 64 34 W 1014,6 17 16 0,0
09.12.2018 09:00:00 8,4 4,8 6,3 10,4 11,6 38 21 53 29 W 1014,1 15 1 0,0
09.12.2018 08:00:00 7,9 4,3 6,1 10,4 11,6 35 19 54 29 WSW 1013,7 14 0 0,0
09.12.2018 07:00:00 7,6 4,2 6,1 10,4 11,6 33 18 46 25 WSW 1013,1 15 0 0,0
09.12.2018 06:00:00 8,6 4,8 6,9 10,4 11,6 34 18 56 30 W 1013,1 17 0 0,0
09.12.2018 05:00:00 8,6 5,3 7,1 10,4 11,6 37 20 67 36 W 1012,5 50 0 0,0
09.12.2018 04:00:00 9,0 5,9 6,9 10,4 11,6 37 20 69 37 W 1012,2 20 0 1,2
09.12.2018 03:00:00 9,5 7,1 8,0 10,4 11,6 30 16 77 42 W 1011,6 5 0 0,2
09.12.2018 02:00:00 10,8 6,5 9,3 10,4 11,6 41 22 63 34 W 1011,1 14 0 0,0
09.12.2018 01:00:00 10,8 7,3 9,5 10,4 11,6 38 21 74 40 WSW 1011,0 14 0 0,0
09.12.2018 00:00:00 11,2 7,7 9,2 10,4 11,6 45 24 68 37 WSW 1011,0 15 0 0,0
08.12.2018 23:00:00 11,4 8,1 9,6 10,4 11,6 51 28 70 38 WSW 1010,7 19 0 0,0
08.12.2018 22:00:00 11,3 9,0 9,7 10,4 11,6 38 21 57 31 WSW 1010,6 60 0 0,0
08.12.2018 21:00:00 11,7 9,6 9,9 10,3 11,6 47 26 68 37 WSW 1011,1 60 0 0,2
08.12.2018 20:00:00 10,8 9,7 9,6 10,3 11,6 41 22 61 33 SW 1011,5 5 0 0,2
08.12.2018 19:00:00 10,6 9,5 9,2 10,3 11,6 42 23 66 36 SW 1011,8 3,5 0 0,0
08.12.2018 18:00:00 10,2 9,1 9,1 10,3 11,6 39 21 58 32 SW 1013,0 3,7 0 0,0
08.12.2018 17:00:00 10,2 8,6 9,0 10,3 11,6 39 21 56 30 SW 1014,1 7 0 0,0
08.12.2018 16:00:00 10,2 8,3 9,0 10,3 11,6 38 20 53 29 SW 1014,9 16 0 0,2
08.12.2018 15:00:00 10,7 7,6 9,6 10,3 11,6 35 19 50 27 SW 1015,8 16 0 0,0
08.12.2018 14:00:00 10,6 7,3 9,6 10,3 11,6 30 16 45 25 SW 1016,8 17 0 0,0
08.12.2018 13:00:00 10,6 6,9 9,9 10,3 11,6 34 18 48 26 WSW 1017,7 18 0 0,0
08.12.2018 12:00:00 9,9 6,8 9,1 10,3 11,6 37 20 49 26 WSW 1018,1 18 1 0,0
08.12.2018 11:00:00 9,2 6,3 8,1 10,3 11,6 30 16 44 24 WSW 1018,3 19 0 0,0
08.12.2018 10:00:00 8,4 6,0 6,9 10,4 11,6 31 17 47 26 WSW 1018,3 19 0 0,0
08.12.2018 09:00:00 7,6 5,4 6,0 10,4 11,5 32 17 44 24 WSW 1018,1 19 0 0,0
08.12.2018 08:00:00 7,2 5,2 5,5 10,5 11,6 32 17 44 24 WSW 1017,8 18 0 0,0
08.12.2018 07:00:00 6,7 4,9 5,2 10,5 11,6 28 15 42 23 WSW 1017,4 17 0 0,0
08.12.2018 06:00:00 6,5 4,5 5,2 10,6 11,5 33 18 51 28 SW 1017,1 17 0 0,0
08.12.2018 05:00:00 6,7 4,5 5,1 10,7 11,6 34 18 50 27 WSW 1017,4 19 0 0,0
08.12.2018 04:00:00 6,2 4,2 4,3 10,7 11,6 32 18 44 24 SW 1017,8 19 0 0,0
08.12.2018 03:00:00 5,7 3,5 4,3 10,8 11,6 27 15 38 21 SW 1018,0 20 0 0,0
08.12.2018 02:00:00 5,6 3,3 4,1 10,9 11,6 26 14 41 22 SW 1018,2 19 0 0,0
08.12.2018 01:00:00 5,7 3,2 4,3 10,9 11,5 27 15 40 21 SW 1018,2 43 0 0,0
08.12.2018 00:00:00 5,9 3,4 4,4 11,0 11,5 27 15 38 21 SW 1018,1 50 0 0,0
07.12.2018 23:00:00 6,1 3,4 4,5 11,1 11,5 24 13 41 22 SW 1017,6 60 0 0,0
07.12.2018 22:00:00 6,4 3,7 4,7 11,1 11,5 29 16 41 22 WSW 1017,5 60 0 0,0
07.12.2018 21:00:00 6,2 3,9 4,7 11,1 11,5 26 14 40 22 WSW 1016,9 60 0 0,0
07.12.2018 20:00:00 6,7 4,4 4,8 11,2 11,5 29 16 41 22 WSW 1015,6 60 0 0,0
07.12.2018 19:00:00 7,0 4,0 5,4 11,2 11,5 33 18 61 33 W 1014,7 17 0 0,0
07.12.2018 18:00:00 7,7 5,2 5,9 11,2 11,6 29 16 71 39 W 1013,1 60 0 0,2
07.12.2018 17:00:00 9,3 6,2 7,4 11,2 11,5 37 20 83 45 W 1011,8 15 12 0,0
07.12.2018 16:00:00 10,7 7,8 9,3 11,2 11,5 34 19 66 36 W 1010,2 48 23 0,2
07.12.2018 15:00:00 11,6 10,3 10,4 11,1 11,5 51 28 74 40 WSW 1008,4 2,4 0 2,0
07.12.2018 14:00:00 11,4 9,8 10,4 11,1 11,5 44 24 64 35 SSW 1007,9 6 0 0,6
07.12.2018 13:00:00 11,1 9,7 10,0 11,1 11,5 39 21 64 35 SSW 1010,3 3,3 0 0,4
07.12.2018 12:00:00 12,2 9,0 11,3 11,1 11,5 41 22 60 33 SSW 1011,7 60 41 0,0
07.12.2018 11:00:00 11,2 8,8 10,3 11,1 11,5 35 19 56 31 SSW 1013,5 18 2 0,0

tt = Température de l'air
td = dewpoint
tt 5cm = Température de l'air 5cm
tt -20cm = Température de l'air -20cm
tt -100cm = Température de l'air -100cm
ff = Vitesse du vent
fx = gusts
dd = Direction du vent
ppp = reduced air pressure
vv = visibility
sd = Ensoleillement
rr = Quantités de précipitations

stations d'obs. à proximité